�v������,�v���f�[�^(L),����(MJ),�����t���O
2003/1/1 0:00,6.353887797,0.237000012,0
2003/1/1 0:15,6.353887797,0.237000012,0
2003/1/1 0:30,6.353887797,0.237000012,0
2003/1/1 0:45,6.353887797,0.237000012,0
2003/1/1 1:00,6.353887797,0.237000012,0
2003/1/1 1:15,6.353887797,0.237000012,0
2003/1/1 1:30,6.353887797,0.237000012,0
2003/1/1 1:45,6.353887797,0.237000012,0
2003/1/1 2:00,6.353887797,0.237000012,0
2003/1/1 2:15,6.353887797,0.237000012,0
2003/1/1 2:30,10.00000048,0.373000012,0
2003/1/1 2:45,0,0,0
2003/1/1 3:00,0,0,0
2003/1/1 3:15,0,0,0
2003/1/1 3:30,0,0,0
2003/1/1 3:45,0,0,0
2003/1/1 4:00,0,0,0
2003/1/1 4:15,0,0,0
2003/1/1 4:30,0,0,0
2003/1/1 4:45,0,0,0
2003/1/1 5:00,0,0,0
2003/1/1 5:15,0,0,0
2003/1/1 5:30,0,0,0
2003/1/1 5:45,0,0,0
2003/1/1 6:00,0,0,0
2003/1/1 6:15,0,0,0
2003/1/1 6:30,0,0,0
2003/1/1 6:45,0,0,0
2003/1/1 7:00,0,0,0
2003/1/1 7:15,0,0,0
2003/1/1 7:30,9.142090797,0.340999991,0
2003/1/1 7:45,14.36997294,0.535999998,0
2003/1/1 8:00,18.44504023,0.687999994,0
2003/1/1 8:15,10.75066996,0.400999993,0
2003/1/1 8:30,6.461126089,0.241000004,0
2003/1/1 8:45,6.353887797,0.237000012,0
2003/1/1 9:00,7.238605738,0.269999995,0
2003/1/1 9:15,3.163539052,0.118000005,0
2003/1/1 9:30,0,0,0
2003/1/1 9:45,0,0,0
2003/1/1 10:00,5.54959774,0.207000002,0
2003/1/1 10:15,6.353887797,0.237000012,0
2003/1/1 10:30,6.353887797,0.237000012,0
2003/1/1 10:45,6.353887797,0.237000012,0
2003/1/1 11:00,6.353887797,0.237000012,0
2003/1/1 11:15,6.353887797,0.237000012,0
2003/1/1 11:30,6.353887797,0.237000012,0
2003/1/1 11:45,6.353887797,0.237000012,0
2003/1/1 12:00,6.353887797,0.237000012,0
2003/1/1 12:15,6.353887797,0.237000012,0
2003/1/1 12:30,6.353887797,0.237000012,0
2003/1/1 12:45,6.353887797,0.237000012,0
2003/1/1 13:00,5.495978355,0.204999998,0
2003/1/1 13:15,0,0,0
2003/1/1 13:30,0,0,0
2003/1/1 13:45,0,0,0
2003/1/1 14:00,0,0,0
2003/1/1 14:15,0,0,0
2003/1/1 14:30,0,0,0
2003/1/1 14:45,7.050938606,0.263000004,0
2003/1/1 15:00,6.353887797,0.237000012,0
2003/1/1 15:15,6.353887797,0.237000012,0
2003/1/1 15:30,6.353887797,0.237000012,0
2003/1/1 15:45,6.353887797,0.237000012,0
2003/1/1 16:00,9.571045876,0.357000009,0
2003/1/1 16:15,0,0,0
2003/1/1 16:30,0,0,0
2003/1/1 16:45,0,0,0
2003/1/1 17:00,0,0,0
2003/1/1 17:15,0,0,0
2003/1/1 17:30,8.552278757,0.319000005,0
2003/1/1 17:45,6.353887797,0.237000012,0
2003/1/1 18:00,6.353887797,0.237000012,0
2003/1/1 18:15,6.353887797,0.237000012,0
2003/1/1 18:30,6.353887797,0.237000012,0
2003/1/1 18:45,6.353887797,0.237000012,0
2003/1/1 19:00,6.353887797,0.237000012,0
2003/1/1 19:15,6.353887797,0.237000012,0
2003/1/1 19:30,6.353887797,0.237000012,0
2003/1/1 19:45,6.353887797,0.237000012,0
2003/1/1 20:00,6.353887797,0.237000012,0
2003/1/1 20:15,6.353887797,0.237000012,0
2003/1/1 20:30,6.353887797,0.237000012,0
2003/1/1 20:45,2.573726684,0.096000005,0
2003/1/1 21:00,0,0,0
2003/1/1 21:15,0,0,0
2003/1/1 21:30,0,0,0
2003/1/1 21:45,0,0,0
2003/1/1 22:00,0,0,0
2003/1/1 22:15,0,0,0
2003/1/1 22:30,0,0,0
2003/1/1 22:45,0,0,0
2003/1/1 23:00,0,0,0
2003/1/1 23:15,0,0,0
2003/1/1 23:30,0,0,0
2003/1/1 23:45,7.345844507,0.273999997,0
2003/1/2 0:00,6.353887797,0.237000012,0
2003/1/2 0:15,6.353887797,0.237000012,0
2003/1/2 0:30,6.353887797,0.237000012,0
2003/1/2 0:45,8.793565989,0.328000002,0
2003/1/2 1:00,0,0,0
2003/1/2 1:15,0,0,0
2003/1/2 1:30,0,0,0
2003/1/2 1:45,0,0,0
2003/1/2 2:00,0,0,0
2003/1/2 2:15,0,0,0
2003/1/2 2:30,0,0,0
2003/1/2 2:45,0,0,0
2003/1/2 3:00,0,0,0
2003/1/2 3:15,0,0,0
2003/1/2 3:30,0,0,0
2003/1/2 3:45,0,0,0
2003/1/2 4:00,0,0,0
2003/1/2 4:15,0,0,0
2003/1/2 4:30,0,0,0
2003/1/2 4:45,0,0,0
2003/1/2 5:00,0,0,0
2003/1/2 5:15,0,0,0
2003/1/2 5:30,0,0,0
2003/1/2 5:45,0,0,0
2003/1/2 6:00,0,0,0
2003/1/2 6:15,0,0,0
2003/1/2 6:30,0,0,0
2003/1/2 6:45,0,0,0
2003/1/2 7:00,2.171581745,0.081,0
2003/1/2 7:15,31.95710469,1.192000001,0
2003/1/2 7:30,19.73190355,0.736000001,0
2003/1/2 7:45,13.10991979,0.489000008,0
2003/1/2 8:00,11.76943684,0.439000003,0
2003/1/2 8:15,8.364611149,0.311999999,0
2003/1/2 8:30,6.380697251,0.238000006,0
2003/1/2 8:45,6.353887797,0.237000012,0
2003/1/2 9:00,6.353887797,0.237000012,0
2003/1/2 9:15,6.353887797,0.237000012,0
2003/1/2 9:30,6.353887797,0.237000012,0
2003/1/2 9:45,6.353887797,0.237000012,0
2003/1/2 10:00,6.353887797,0.237000012,0
2003/1/2 10:15,6.353887797,0.237000012,0
2003/1/2 10:30,6.353887797,0.237000012,0
2003/1/2 10:45,6.353887797,0.237000012,0
2003/1/2 11:00,6.353887797,0.237000012,0
2003/1/2 11:15,6.916890144,0.257999994,0
2003/1/2 11:30,7.479892969,0.279000007,0
2003/1/2 11:45,0,0,0
2003/1/2 12:00,0,0,0
2003/1/2 12:15,0,0,0
2003/1/2 12:30,0,0,0
2003/1/2 12:45,0,0,0
2003/1/2 13:00,0,0,0
2003/1/2 13:15,0,0,0
2003/1/2 13:30,0,0,0
2003/1/2 13:45,0,0,0
2003/1/2 14:00,0,0,0
2003/1/2 14:15,0,0,0
2003/1/2 14:30,0,0,0
2003/1/2 14:45,0,0,0
2003/1/2 15:00,0,0,0
2003/1/2 15:15,0,0,0
2003/1/2 15:30,0,0,0
2003/1/2 15:45,0,0,0
2003/1/2 16:00,0,0,0
2003/1/2 16:15,0,0,0
2003/1/2 16:30,0,0,0
2003/1/2 16:45,4.235925198,0.158000007,0
2003/1/2 17:00,13.91420913,0.518999994,0
2003/1/2 17:15,7.56032157,0.281999997,0
2003/1/2 17:30,6.380697251,0.238000006,0
2003/1/2 17:45,8.632708073,0.322000012,0
2003/1/2 18:00,6.353887797,0.237000012,0
2003/1/2 18:15,6.353887797,0.237000012,0
2003/1/2 18:30,6.353887797,0.237000012,0
2003/1/2 18:45,6.353887797,0.237000012,0
2003/1/2 19:00,6.353887797,0.237000012,0
2003/1/2 19:15,6.353887797,0.237000012,0
2003/1/2 19:30,6.353887797,0.237000012,0
2003/1/2 19:45,6.353887797,0.237000012,0
2003/1/2 20:00,6.353887797,0.237000012,0
2003/1/2 20:15,6.353887797,0.237000012,0
2003/1/2 20:30,6.353887797,0.237000012,0
2003/1/2 20:45,6.434316636,0.24000001,0
2003/1/2 21:00,6.353887797,0.237000012,0
2003/1/2 21:15,6.353887797,0.237000012,0
2003/1/2 21:30,6.353887797,0.237000012,0
2003/1/2 21:45,6.353887797,0.237000012,0
2003/1/2 22:00,6.353887797,0.237000012,0
2003/1/2 22:15,6.353887797,0.237000012,0
2003/1/2 22:30,11.63538885,0.434,0
2003/1/2 22:45,10.88471866,0.406000003,0
2003/1/2 23:00,9.383378267,0.350000002,0
2003/1/2 23:15,8.069704771,0.300999999,0
2003/1/2 23:30,9.061662198,0.337999999,0
2003/1/2 23:45,8.364611149,0.311999999,0
2003/1/3 0:00,9.168900728,0.342,0
2003/1/3 0:15,9.222519875,0.343999996,0
2003/1/3 0:30,6.997319222,0.261000008,0
2003/1/3 0:45,8.873994827,0.331,0
2003/1/3 1:00,8.954423905,0.334000007,0
2003/1/3 1:15,8.096514941,0.302000002,0
2003/1/3 1:30,8.981233359,0.335000009,0
2003/1/3 1:45,0,0,0
2003/1/3 2:00,0,0,0
2003/1/3 2:15,0,0,0
2003/1/3 2:30,0,0,0
2003/1/3 2:45,0,0,0
2003/1/3 3:00,0,0,0
2003/1/3 3:15,0,0,0
2003/1/3 3:30,0,0,0
2003/1/3 3:45,0,0,0
2003/1/3 4:00,0,0,0
2003/1/3 4:15,0,0,0
2003/1/3 4:30,0,0,0
2003/1/3 4:45,0,0,0
2003/1/3 5:00,0,0,0
2003/1/3 5:15,0,0,0
2003/1/3 5:30,0,0,0
2003/1/3 5:45,0,0,0
2003/1/3 6:00,0,0,0
2003/1/3 6:15,0,0,0
2003/1/3 6:30,0,0,0
2003/1/3 6:45,0,0,0
2003/1/3 7:00,29.27614022,1.092000007,0
2003/1/3 7:15,34.28954506,1.279000014,0
2003/1/3 7:30,27.90884685,1.041000009,0
2003/1/3 7:45,21.47453165,0.801000014,0
2003/1/3 8:00,17.50670195,0.652999998,0
2003/1/3 8:15,17.61394072,0.656999991,0
2003/1/3 8:30,13.10991955,0.489,0
2003/1/3 8:45,10.64343143,0.396999999,0
2003/1/3 9:00,11.79624677,0.440000006,0
2003/1/3 9:15,12.89544225,0.480999991,0
2003/1/3 9:30,11.58176947,0.432000003,0
2003/1/3 9:45,13.61930275,0.507999987,0
2003/1/3 10:00,11.09919572,0.414000004,0
2003/1/3 10:15,6.380697251,0.238000006,0
2003/1/3 10:30,6.434316397,0.240000002,0
2003/1/3 10:45,6.514744997,0.242999993,0
2003/1/3 11:00,7.453083277,0.278000005,0
2003/1/3 11:15,8.20375371,0.30600001,0
2003/1/3 11:30,17.02412892,0.635000013,0
2003/1/3 11:45,11.23324394,0.419000001,0
2003/1/3 12:00,10.02680969,0.374000006,0
2003/1/3 12:15,10.53619289,0.392999998,0
2003/1/3 12:30,8.686326981,0.323999994,0
2003/1/3 12:45,12.01072383,0.447999999,0
2003/1/3 13:00,9.356568575,0.349,0
2003/1/3 13:15,6.970509768,0.260000006,0
2003/1/3 13:30,6.809651376,0.254,0
2003/1/3 13:45,6.729222775,0.25100001,0
2003/1/3 14:00,6.353887797,0.237000012,0
2003/1/3 14:15,7.506702662,0.280000009,0
2003/1/3 14:30,7.077748299,0.264000007,0
2003/1/3 14:45,6.380697251,0.238000006,0
2003/1/3 15:00,10.42895436,0.388999999,0
2003/1/3 15:15,16.1394105,0.601999998,0
2003/1/3 15:30,6.46112609,0.241000004,0
2003/1/3 15:45,8.39142108,0.313000002,0
2003/1/3 16:00,11.84986615,0.441999994,0
2003/1/3 16:15,6.541555167,0.244000003,0
2003/1/3 16:30,6.353887797,0.237000012,0
2003/1/3 16:45,6.353887797,0.237000012,0
2003/1/3 17:00,6.380697251,0.238000006,0
2003/1/3 17:15,8.391420841,0.313,0
2003/1/3 17:30,6.353887797,0.237000012,0
2003/1/3 17:45,6.353887797,0.237000012,0
2003/1/3 18:00,6.353887797,0.237000012,0
2003/1/3 18:15,6.353887797,0.237000012,0
2003/1/3 18:30,6.353887797,0.237000012,0
2003/1/3 18:45,6.353887797,0.237000012,0
2003/1/3 19:00,6.353887797,0.237000012,0
2003/1/3 19:15,6.353887797,0.237000012,0
2003/1/3 19:30,6.353887797,0.237000012,0
2003/1/3 19:45,6.353887797,0.237000012,0
2003/1/3 20:00,6.353887797,0.237000012,0
2003/1/3 20:15,6.353887797,0.237000012,0
2003/1/3 20:30,6.353887797,0.237000012,0
2003/1/3 20:45,6.353887797,0.237000012,0
2003/1/3 21:00,6.353887797,0.237000012,0
2003/1/3 21:15,6.353887797,0.237000012,0
2003/1/3 21:30,6.353887797,0.237000012,0
2003/1/3 21:45,6.353887797,0.237000012,0
2003/1/3 22:00,6.353887797,0.237000012,0
2003/1/3 22:15,6.353887797,0.237000012,0
2003/1/3 22:30,6.353887797,0.237000012,0
2003/1/3 22:45,6.353887797,0.237000012,0
2003/1/3 23:00,6.353887797,0.237000012,0
2003/1/3 23:15,6.353887797,0.237000012,0
2003/1/3 23:30,6.353887797,0.237000012,0
2003/1/3 23:45,6.353887797,0.237000012,0
2003/1/4 0:00,6.67560339,0.248999998,0
2003/1/4 0:15,0,0,0
2003/1/4 0:30,0,0,0
2003/1/4 0:45,0,0,0
2003/1/4 1:00,0,0,0
2003/1/4 1:15,0,0,0
2003/1/4 1:30,0,0,0
2003/1/4 1:45,0,0,0
2003/1/4 2:00,0,0,0
2003/1/4 2:15,0,0,0
2003/1/4 2:30,0,0,0
2003/1/4 2:45,0,0,0
2003/1/4 3:00,0,0,0
2003/1/4 3:15,0,0,0
2003/1/4 3:30,0,0,0
2003/1/4 3:45,0,0,0
2003/1/4 4:00,0,0,0
2003/1/4 4:15,0,0,0
2003/1/4 4:30,0,0,0
2003/1/4 4:45,0,0,0
2003/1/4 5:00,0,0,0
2003/1/4 5:15,0,0,0
2003/1/4 5:30,0,0,0
2003/1/4 5:45,0,0,0
2003/1/4 6:00,0,0,0
2003/1/4 6:15,7.77479887,0.289999992,0
2003/1/4 6:30,23.56568431,0.879000008,0
2003/1/4 6:45,16.32707834,0.609000012,0
2003/1/4 7:00,13.0563004,0.486999989,0
2003/1/4 7:15,11.60857916,0.432999999,0
2003/1/4 7:30,9.651474714,0.359999999,0
2003/1/4 7:45,11.31367302,0.422000006,0
2003/1/4 8:00,6.353887797,0.237000012,0
2003/1/4 8:15,6.353887797,0.237000012,0
2003/1/4 8:30,6.353887797,0.237000012,0
2003/1/4 8:45,6.353887797,0.237000012,0
2003/1/4 9:00,19.19571114,0.716000006,0
2003/1/4 9:15,0,0,0
2003/1/4 9:30,0,0,0
2003/1/4 9:45,0,0,0
2003/1/4 10:00,9.490616799,0.354000003,0
2003/1/4 10:15,6.353887797,0.237000012,0
2003/1/4 10:30,6.353887797,0.237000012,0
2003/1/4 10:45,9.195710421,0.343000003,0
2003/1/4 11:00,0,0,0
2003/1/4 11:15,0,0,0
2003/1/4 11:30,0,0,0
2003/1/4 11:45,0,0,0
2003/1/4 12:00,0,0,0
2003/1/4 12:15,0,0,0
2003/1/4 12:30,0,0,0
2003/1/4 12:45,0,0,0
2003/1/4 13:00,0,0,0
2003/1/4 13:15,0,0,0
2003/1/4 13:30,0,0,0
2003/1/4 13:45,0,0,0
2003/1/4 14:00,0,0,0
2003/1/4 14:15,0,0,0
2003/1/4 14:30,0,0,0
2003/1/4 14:45,0,0,0
2003/1/4 15:00,0,0,0
2003/1/4 15:15,0,0,0
2003/1/4 15:30,0,0,0
2003/1/4 15:45,0,0,0
2003/1/4 16:00,0,0,0
2003/1/4 16:15,0,0,0
2003/1/4 16:30,0,0,0
2003/1/4 16:45,0,0,0
2003/1/4 17:00,0,0,0
2003/1/4 17:15,0,0,0
2003/1/4 17:30,0,0,0
2003/1/4 17:45,0,0,0
2003/1/4 18:00,0,0,0
2003/1/4 18:15,0,0,0
2003/1/4 18:30,0,0,0
2003/1/4 18:45,0,0,0
2003/1/4 19:00,9.302948952,0.347000003,0
2003/1/4 19:15,10.24128699,0.382000008,0
2003/1/4 19:30,6.78284216,0.253000007,0
2003/1/4 19:45,6.353887797,0.237000012,0
2003/1/4 20:00,6.353887797,0.237000012,0
2003/1/4 20:15,6.353887797,0.237000012,0
2003/1/4 20:30,6.353887797,0.237000012,0
2003/1/4 20:45,6.353887797,0.237000012,0
2003/1/4 21:00,6.353887797,0.237000012,0
2003/1/4 21:15,6.353887797,0.237000012,0
2003/1/4 21:30,6.353887797,0.237000012,0
2003/1/4 21:45,6.353887797,0.237000012,0
2003/1/4 22:00,6.702413083,0.250000008,0
2003/1/4 22:15,6.353887797,0.237000012,0
2003/1/4 22:30,6.353887797,0.237000012,0
2003/1/4 22:45,6.353887797,0.237000012,0
2003/1/4 23:00,6.353887797,0.237000012,0
2003/1/4 23:15,6.353887797,0.237000012,0
2003/1/4 23:30,6.353887797,0.237000012,0
2003/1/4 23:45,6.353887797,0.237000012,0
2003/1/5 0:00,7.962466479,0.296999999,0
2003/1/5 0:15,0,0,0
2003/1/5 0:30,0,0,0
2003/1/5 0:45,0,0,0
2003/1/5 1:00,0,0,0
2003/1/5 1:15,0,0,0
2003/1/5 1:30,0,0,0
2003/1/5 1:45,0,0,0
2003/1/5 2:00,0,0,0
2003/1/5 2:15,0,0,0
2003/1/5 2:30,0,0,0
2003/1/5 2:45,0,0,0
2003/1/5 3:00,0,0,0
2003/1/5 3:15,0,0,0
2003/1/5 3:30,0,0,0
2003/1/5 3:45,0,0,0
2003/1/5 4:00,0,0,0
2003/1/5 4:15,0,0,0
2003/1/5 4:30,0,0,0
2003/1/5 4:45,0,0,0
2003/1/5 5:00,0,0,0
2003/1/5 5:15,0,0,0
2003/1/5 5:30,0,0,0
2003/1/5 5:45,0,0,0
2003/1/5 6:00,0,0,0
2003/1/5 6:15,0,0,0
2003/1/5 6:30,0,0,0
2003/1/5 6:45,0,0,0
2003/1/5 7:00,0,0,0
2003/1/5 7:15,0,0,0
2003/1/5 7:30,11.71581793,0.437000012,0
2003/1/5 7:45,30.37533665,1.133000016,0
2003/1/5 8:00,18.09651518,0.675000012,0
2003/1/5 8:15,9.463807106,0.353000007,0
2003/1/5 8:30,11.47453094,0.428000004,0
2003/1/5 8:45,6.353887797,0.237000012,0
2003/1/5 9:00,6.595174551,0.246000008,0
2003/1/5 9:15,6.353887797,0.237000012,0
2003/1/5 9:30,6.353887797,0.237000012,0
2003/1/5 9:45,7.024128438,0.261999994,0
2003/1/5 10:00,6.702413083,0.250000008,0
2003/1/5 10:15,6.353887797,0.237000012,0
2003/1/5 10:30,8.123324633,0.303000011,0
2003/1/5 10:45,0,0,0
2003/1/5 11:00,0,0,0
2003/1/5 11:15,0,0,0
2003/1/5 11:30,0,0,0
2003/1/5 11:45,0,0,0
2003/1/5 12:00,0,0,0
2003/1/5 12:15,0,0,0
2003/1/5 12:30,7.372653961,0.274999998,0
2003/1/5 12:45,6.434316636,0.24000001,0
2003/1/5 13:00,6.353887797,0.237000012,0
2003/1/5 13:15,28.6058979,1.067000002,0
2003/1/5 13:30,20.29490566,0.756999984,0
2003/1/5 13:45,16.78284216,0.626000001,0
2003/1/5 14:00,16.56836462,0.618,0
2003/1/5 14:15,12.65415549,0.472000003,0
2003/1/5 14:30,12.76139402,0.475999996,0
2003/1/5 14:45,13.726542,0.51200001,0
2003/1/5 15:00,11.74262714,0.437999994,0
2003/1/5 15:15,10.50938296,0.391999989,0
2003/1/5 15:30,0,0,0
2003/1/5 15:45,0,0,0
2003/1/5 16:00,0,0,0
2003/1/5 16:15,8.552278757,0.31899999,0
2003/1/5 16:30,6.380697251,0.238000006,0
2003/1/5 16:45,11.90348506,0.443999998,0
2003/1/5 17:00,7.426273823,0.277000011,0
2003/1/5 17:15,11.6085794,0.433000014,0
2003/1/5 17:30,9.463807106,0.353,0
2003/1/5 17:45,6.407506943,0.239000008,0
2003/1/5 18:00,6.407506943,0.239000008,0
2003/1/5 18:15,6.514745713,0.243000009,0
2003/1/5 18:30,6.353887797,0.237000012,0
2003/1/5 18:45,6.353887797,0.237000012,0
2003/1/5 19:00,6.568364859,0.245000005,0
2003/1/5 19:15,6.380697251,0.238000006,0
2003/1/5 19:30,14.95978499,0.557999983,0
2003/1/5 19:45,6.702413083,0.250000008,0
2003/1/5 20:00,6.353887797,0.237000012,0
2003/1/5 20:15,6.353887797,0.237000012,0
2003/1/5 20:30,6.353887797,0.237000012,0
2003/1/5 20:45,6.353887797,0.237000012,0
2003/1/5 21:00,6.353887797,0.237000012,0
2003/1/5 21:15,6.353887797,0.237000012,0
2003/1/5 21:30,6.353887797,0.237000012,0
2003/1/5 21:45,7.18498683,0.268000007,0
2003/1/5 22:00,7.560321808,0.282000006,0
2003/1/5 22:15,9.034852743,0.337000005,0
2003/1/5 22:30,11.17962527,0.417000011,0
2003/1/5 22:45,6.729222537,0.251000002,0
2003/1/5 23:00,6.353887797,0.237000012,0
2003/1/5 23:15,6.380697251,0.238000006,0
2003/1/5 23:30,6.353887797,0.237000012,0
2003/1/5 23:45,9.222519636,0.34399999,0
2003/1/6 0:00,0,0,0
2003/1/6 0:15,0,0,0
2003/1/6 0:30,0,0,0
2003/1/6 0:45,0,0,0
2003/1/6 1:00,0,0,0
2003/1/6 1:15,0,0,0
2003/1/6 1:30,0,0,0
2003/1/6 1:45,0,0,0
2003/1/6 2:00,0,0,0
2003/1/6 2:15,0,0,0
2003/1/6 2:30,0,0,0
2003/1/6 2:45,0,0,0
2003/1/6 3:00,0,0,0
2003/1/6 3:15,0,0,0
2003/1/6 3:30,0,0,0
2003/1/6 3:45,0,0,0
2003/1/6 4:00,0,0,0
2003/1/6 4:15,0,0,0
2003/1/6 4:30,0,0,0
2003/1/6 4:45,0,0,0
2003/1/6 5:00,0,0,0
2003/1/6 5:15,0,0,0
2003/1/6 5:30,0,0,0
2003/1/6 5:45,0,0,0
2003/1/6 6:00,19.46380758,0.726000011,0
2003/1/6 6:15,34.53083229,1.288000017,0
2003/1/6 6:30,28.39142036,1.059000015,0
2003/1/6 6:45,24.07506704,0.898000002,0
2003/1/6 7:00,17.66756058,0.659000009,0
2003/1/6 7:15,17.47989321,0.652000011,0
2003/1/6 7:30,11.17962456,0.417000003,0
2003/1/6 7:45,15.22788239,0.568000003,0
2003/1/6 8:00,9.383377791,0.349999994,0
2003/1/6 8:15,6.380697251,0.238000006,0
2003/1/6 8:30,6.353887797,0.237000012,0
2003/1/6 8:45,6.353887797,0.237000012,0
2003/1/6 9:00,8.90080452,0.332000003,0
2003/1/6 9:15,6.353887797,0.237000012,0
2003/1/6 9:30,6.353887797,0.237000012,0
2003/1/6 9:45,6.353887797,0.237000012,0
2003/1/6 10:00,5.576407433,0.208000004,0
2003/1/6 10:15,5.415549755,0.202000007,0
2003/1/6 10:30,31.17962551,1.163000017,0
2003/1/6 10:45,0,0,0
2003/1/6 11:00,0,0,0
2003/1/6 11:15,0,0,0
2003/1/6 11:30,0,0,0
2003/1/6 11:45,0,0,0
2003/1/6 12:00,0,0,0
2003/1/6 12:15,6.193029881,0.231000006,0
2003/1/6 12:30,20.48257398,0.763999998,0
2003/1/6 12:45,20.2680974,0.756000012,0
2003/1/6 13:00,6.353887797,0.237000012,0
2003/1/6 13:15,10.00000048,0.373000012,0
2003/1/6 13:30,0,0,0
2003/1/6 13:45,0,0,0
2003/1/6 14:00,0,0,0
2003/1/6 14:15,0,0,0
2003/1/6 14:30,0,0,0
2003/1/6 14:45,0,0,0
2003/1/6 15:00,0,0,0
2003/1/6 15:15,0,0,0
2003/1/6 15:30,0,0,0
2003/1/6 15:45,0,0,0
2003/1/6 16:00,0,0,0
2003/1/6 16:15,6.273458481,0.233999997,0
2003/1/6 16:30,29.4369979,1.09799999,0
2003/1/6 16:45,19.2225194,0.716999978,0
2003/1/6 17:00,11.52815008,0.430000006,0
2003/1/6 17:15,8.793565751,0.328000002,0
2003/1/6 17:30,17.02412867,0.635000013,0
2003/1/6 17:45,10.77748013,0.402000002,0
2003/1/6 18:00,12.65415573,0.472000003,0
2003/1/6 18:15,7.265415669,0.271000005,0
2003/1/6 18:30,6.67560339,0.249000006,0
2003/1/6 18:45,14.15549636,0.528000012,0
2003/1/6 19:00,10.53619289,0.392999998,0
2003/1/6 19:15,6.916890383,0.258000009,0
2003/1/6 19:30,6.541555405,0.244000011,0
2003/1/6 19:45,0.563002646,0.021,0
2003/1/6 20:00,0,0,0
2003/1/6 20:15,13.43163562,0.501000002,0
2003/1/6 20:30,10.02680969,0.373999998,0
2003/1/6 20:45,6.434316397,0.240000002,0
2003/1/6 21:00,8.096515179,0.302000009,0
2003/1/6 21:15,6.353887797,0.237000012,0
2003/1/6 21:30,6.407506705,0.239,0
2003/1/6 21:45,6.434316397,0.240000002,0
2003/1/6 22:00,6.595174551,0.246000007,0
2003/1/6 22:15,6.353887797,0.237000012,0
2003/1/6 22:30,6.514745713,0.243000009,0
2003/1/6 22:45,6.353887797,0.237000012,0
2003/1/6 23:00,6.353887797,0.237000012,0
2003/1/6 23:15,6.353887797,0.237000012,0
2003/1/6 23:30,6.353887797,0.237000012,0
2003/1/6 23:45,6.353887797,0.237000012,0
2003/1/7 0:00,6.353887797,0.237000012,0
2003/1/7 0:15,6.809651852,0.254000008,0
2003/1/7 0:30,0,0,0
2003/1/7 0:45,0,0,0
2003/1/7 1:00,0,0,0
2003/1/7 1:15,0,0,0
2003/1/7 1:30,0,0,0
2003/1/7 1:45,0,0,0
2003/1/7 2:00,0,0,0
2003/1/7 2:15,0,0,0
2003/1/7 2:30,0,0,0
2003/1/7 2:45,0,0,0
2003/1/7 3:00,0,0,0
2003/1/7 3:15,0,0,0
2003/1/7 3:30,0,0,0
2003/1/7 3:45,0,0,0
2003/1/7 4:00,0,0,0
2003/1/7 4:15,0,0,0
2003/1/7 4:30,0,0,0
2003/1/7 4:45,0,0,0
2003/1/7 5:00,0,0,0
2003/1/7 5:15,0,0,0
2003/1/7 5:30,0,0,0
2003/1/7 5:45,0,0,0
2003/1/7 6:00,13.61930347,0.508000009,0
2003/1/7 6:15,34.53083229,1.288000017,0
2003/1/7 6:30,34.42359352,1.284000009,0
2003/1/7 6:45,37.26541519,1.389999986,0
2003/1/7 7:00,27.05093861,1.009000003,0
2003/1/7 7:15,24.3163538,0.907000005,0
2003/1/7 7:30,29.19571018,1.088999987,0
2003/1/7 7:45,0,0,0
2003/1/7 8:00,0,0,0
2003/1/7 8:15,0,0,0
2003/1/7 8:30,0,0,0
2003/1/7 8:45,0,0,0
2003/1/7 9:00,0,0,0
2003/1/7 9:15,0,0,0
2003/1/7 9:30,0,0,0
2003/1/7 9:45,0,0,0
2003/1/7 10:00,0,0,0
2003/1/7 10:15,33.99463845,1.268000006,0
2003/1/7 10:30,34.58445168,1.290000021,0
2003/1/7 10:45,34.58445168,1.290000021,0
2003/1/7 11:00,28.23056317,1.053000003,0
2003/1/7 11:15,30.26809597,1.128999978,0
2003/1/7 11:30,14.42359257,0.538000003,0
2003/1/7 11:45,20.13404799,0.751000002,0
2003/1/7 12:00,19.75871277,0.737000004,0
2003/1/7 12:15,28.76675558,1.072999984,0
2003/1/7 12:30,0,0,0
2003/1/7 12:45,0,0,0
2003/1/7 13:00,0,0,0
2003/1/7 13:15,0,0,0
2003/1/7 13:30,0,0,0
2003/1/7 13:45,0,0,0
2003/1/7 14:00,0,0,0
2003/1/7 14:15,0,0,0
2003/1/7 14:30,0,0,0
2003/1/7 14:45,0,0,0
2003/1/7 15:00,0,0,0
2003/1/7 15:15,2.117962599,0.079000004,0
2003/1/7 15:30,30.24128724,1.127999991,0
2003/1/7 15:45,18.33780146,0.684,0
2003/1/7 16:00,13.16353869,0.490999997,0
2003/1/7 16:15,19.00804305,0.708999999,0
2003/1/7 16:30,11.28686357,0.421000004,0
2003/1/7 16:45,6.997319222,0.261,0
2003/1/7 17:00,10.16085839,0.379000016,0
2003/1/7 17:15,9.544235944,0.355999999,0
2003/1/7 17:30,20.16085768,0.752000004,0
2003/1/7 17:45,11.3941021,0.425000004,0
2003/1/7 18:00,11.09919524,0.413999997,0
2003/1/7 18:15,8.552278519,0.318999998,0
2003/1/7 18:30,18.98123312,0.708000005,0
2003/1/7 18:45,13.86058974,0.517000005,0
2003/1/7 19:00,8.150134326,0.304000013,0
2003/1/7 19:15,6.353887797,0.237000012,0
2003/1/7 19:30,20.05361891,0.747999995,0
2003/1/7 19:45,22.9758718,0.857000001,0
2003/1/7 20:00,6.353887797,0.237000012,0
2003/1/7 20:15,6.353887797,0.237000012,0
2003/1/7 20:30,7.479892969,0.279000007,0
2003/1/7 20:45,6.353887797,0.237000012,0
2003/1/7 21:00,6.353887797,0.237000012,0
2003/1/7 21:15,6.353887797,0.237000012,0
2003/1/7 21:30,6.353887797,0.237000012,0
2003/1/7 21:45,6.353887797,0.237000012,0
2003/1/7 22:00,6.353887797,0.237000012,0
2003/1/7 22:15,6.353887797,0.237000012,0
2003/1/7 22:30,6.353887797,0.237000012,0
2003/1/7 22:45,6.353887797,0.237000012,0
2003/1/7 23:00,6.353887797,0.237000012,0
2003/1/7 23:15,6.353887797,0.237000012,0
2003/1/7 23:30,6.353887797,0.237000012,0
2003/1/7 23:45,6.353887797,0.237000012,0
2003/1/8 0:00,6.353887797,0.237000012,0
2003/1/8 0:15,6.353887797,0.237000012,0
2003/1/8 0:30,8.76675582,0.327,0
2003/1/8 0:45,0,0,0
2003/1/8 1:00,0,0,0
2003/1/8 1:15,0,0,0
2003/1/8 1:30,0,0,0
2003/1/8 1:45,0,0,0
2003/1/8 2:00,0,0,0
2003/1/8 2:15,0,0,0
2003/1/8 2:30,0,0,0
2003/1/8 2:45,0,0,0
2003/1/8 3:00,0,0,0
2003/1/8 3:15,0,0,0
2003/1/8 3:30,0,0,0
2003/1/8 3:45,0,0,0
2003/1/8 4:00,0,0,0
2003/1/8 4:15,0,0,0
2003/1/8 4:30,0,0,0
2003/1/8 4:45,0,0,0
2003/1/8 5:00,0,0,0
2003/1/8 5:15,0,0,0
2003/1/8 5:30,0,0,0
2003/1/8 5:45,2.010723829,0.075000003,0
2003/1/8 6:00,31.44772149,1.173000008,0
2003/1/8 6:15,31.87667656,1.18900001,0
2003/1/8 6:30,22.78820372,0.849999993,0
2003/1/8 6:45,18.87399483,0.704000011,0
2003/1/8 7:00,15.71045637,0.586000011,0
2003/1/8 7:15,12.06434321,0.449999988,0
2003/1/8 7:30,15.54959822,0.580000005,0
2003/1/8 7:45,11.39410186,0.424999997,0
2003/1/8 8:00,8.954423427,0.333999992,0
2003/1/8 8:15,6.675603151,0.248999998,0
2003/1/8 8:30,6.407506705,0.239,0
2003/1/8 8:45,6.514744997,0.242999993,0
2003/1/8 9:00,21.84986591,0.814999997,0
2003/1/8 9:15,9.973190785,0.37200001,0
2003/1/8 9:30,0,0,0
2003/1/8 9:45,0,0,0
2003/1/8 10:00,0,0,0
2003/1/8 10:15,0,0,0
2003/1/8 10:30,0,0,0
2003/1/8 10:45,0,0,0
2003/1/8 11:00,0,0,0
2003/1/8 11:15,0,0,0
2003/1/8 11:30,0,0,0
2003/1/8 11:45,0,0,0
2003/1/8 12:00,0,0,0
2003/1/8 12:15,0,0,0
2003/1/8 12:30,0,0,0
2003/1/8 12:45,0,0,0
2003/1/8 13:00,0,0,0
2003/1/8 13:15,7.935656786,0.295999997,0
2003/1/8 13:30,6.353887797,0.237000012,0
2003/1/8 13:45,6.353887797,0.237000012,0
2003/1/8 14:00,10.75067043,0.401000009,0
2003/1/8 14:15,0,0,0
2003/1/8 14:30,0,0,0
2003/1/8 14:45,0,0,0
2003/1/8 15:00,0,0,0
2003/1/8 15:15,0,0,0
2003/1/8 15:30,0,0,0
2003/1/8 15:45,0,0,0
2003/1/8 16:00,0,0,0
2003/1/8 16:15,0,0,0
2003/1/8 16:30,11.12600553,0.415,0
2003/1/8 16:45,6.353887797,0.237000012,0